Back to catalog

STARLINK-33912

AliveCommunicationsVLEO
NORAD 64107·PAYLOAD·🇺🇸 United States

Launched May 23, 2025 from Vandenberg Space Force Base

Loading…

Next Passes (next 24 hours)

TLE

FreshSource: CelesTrak SupGP

Epoch: Sep 15, 2026, 02:52 UTC

1 64107C 25110M   26258.11993056 -.00053663  00000+0 -17255-2 0  2588
2 64107  53.1597 225.4870 0001373  89.0881 309.6744 15.31731065    12

Track STARLINK-33912 in real time with AllMySat

Download on the App Store